❰ Current Conditions

NWS Regional Weather Roundup - New England Area
REGIONAL WEATHER ROUNDUP
NATIONAL WEATHER SERVICE BOSTON/NORTON MA
400 AM EDT TUE JUN 15 2021

NOTE:  "FAIR" INDICATES FEW OR NO CLOUDS BELOW 12,000 FEET WITH NO 
SIGNIFICANT WEATHER AND/OR OBSTRUCTIONS TO VISIBILITY.

MAZALL-150900-
EASTERN MASSACHUSETTS
  
CITY           SKY/WX    TMP DP  RH WIND       PRES   REMARKS
BOSTON         FOG       63  61  93 CALM      29.78S VSB 1            
BEVERLY        HVY RAIN  63  63 100 E3        29.77F VSB 1            
LAWRENCE       LGT RAIN  62  61  96 CALM      29.79F                  
BEDFORD        HVY RAIN  64  63  96 S5        29.77R FOG              
BLUE HILL        N/A     62  62 100 S8        29.76F                  
NORWOOD        CLOUDY    64  62  93 NW5       29.76F                  
MARSHFIELD     CLOUDY    66  66 100 CALM      29.76F FOG              
PLYMOUTH       CLOUDY    64  63  96 CALM      29.76F                  
TAUNTON        CLOUDY    66  64  93 CALM      29.75F                  
NEW BEDFORD    PTCLDY    64  63  96 CALM      29.75F                  
$$

MAZALL-150900-
CAPE COD AND THE ISLANDS
  
CITY           SKY/WX    TMP DP  RH WIND       PRES   REMARKS
FALMOUTH       MOCLDY    64  64 100 SW6       29.77F                  
HYANNIS        MOCLDY    64  62  93 W3        29.76F                  
CHATHAM        FOG       63  62  97 SE5       29.79F VSB 1/4          
PROVINCETOWN   FOG       64  64 100 S6        29.78F VSB 3/4          
NANTUCKET      FOG       65  63  93 S3        29.78F VSB 1/4          
MARTHAS VNYRD  CLEAR     62  58  86 MISG        N/A                   
$$
 
MAZALL-150900-
CENTRAL AND WESTERN MASSACHUSETTS
  
CITY           SKY/WX    TMP DP  RH WIND       PRES   REMARKS
WORCESTER      LGT RAIN  60  59  96 CALM      29.77F                  
FITCHBURG      LGT RAIN  63  62  97 N3        29.76F                  
ORANGE         CLOUDY    62  60  93 CALM      29.78S                  
SPRINGFIELD    CLOUDY    63  60  89 CALM      29.75S                  
WESTFIELD      CLOUDY    64  63  96 CALM      29.76S                  
NORTH ADAMS    MOCLDY    62  59  90 CALM      29.77S                  
PITTSFIELD     CLOUDY    60  59  96 CALM      29.76F                  
$$
 
RIZALL-150900-
RHODE ISLAND
  
CITY           SKY/WX    TMP DP  RH WIND       PRES   REMARKS
PROVIDENCE     MOCLDY    65  63  93 S3        29.75F                  
NEWPORT        PTCLDY    62  62 100 S3        29.75F                  
BLOCK ISLAND   MOCLDY    63  61  93 S5        29.76                   
SMITHFIELD     MOCLDY    63  63 100 CALM      29.76F                  
WESTERLY       MOCLDY    61  61 100 SE3       29.75F                  
$$
 
CTZALL-150900-
CONNECTICUT
  
CITY           SKY/WX    TMP DP  RH WIND       PRES   REMARKS
BRADLEY INTL   CLOUDY    64  62  93 CALM      29.75F                  
HARTFORD       CLOUDY    66  61  84 CALM      29.75S                  
BRIDGEPORT     CLOUDY    67  64  90 CALM      29.75S                  
DANBURY        CLOUDY    65  61  87 CALM      29.78R                  
GROTON         CLOUDY    63  61  93 CALM      29.75F                  
NEW HAVEN      CLOUDY    66  65  96 CALM      29.75F                  
CHESTER        CLOUDY    63  63 100 CALM      29.76R                  
MERIDEN        CLOUDY    64  61  90 CALM      29.75F                  
WILLIMANTIC    CLOUDY    63  62  97 CALM      29.77R                  
OXFORD         CLOUDY    61  61 100 CALM      29.78R FOG              
$$

MEZ002-015-021-024-NHZ003-005-008-011-012-014-VTZ005-008-150900-
NORTHERN NEW ENGLAND
  
CITY           SKY/WX    TMP DP  RH WIND       PRES   REMARKS
PORTLAND ME    FOG       60  60 100 CALM      29.78F VSB 1/2          
BANGOR ME      CLOUDY    60  59  96 SE5       29.81F FOG              
CONCORD NH     CLOUDY    61  60  97 CALM      29.77F                  
MANCHESTER NH  CLOUDY    64  61  90 E5        29.76F FOG              
NASHUA NH      MOCLDY    64  64 100 CALM      29.77F                  
PORTSMOUTH NH  LGT RAIN  61  61 100 CALM      29.79  VSB 1/2          
JAFFREY NH     CLOUDY    62  60  93 CALM      29.79S                  
KEENE NH       CLOUDY    62  61  96 CALM      29.77F                  
BURLINGTON VT  CLOUDY    62  60  93 CALM      29.73S                  
MT. WASHINGTON FOG       45  45 100 SW22        N/A  VSB 0            
$$

NYZ052-076-150900-
EASTERN NEW YORK
  
CITY           SKY/WX    TMP DP  RH WIND       PRES   REMARKS
ALBANY         FOG       58  58 100 CALM      29.76F VSB 1/8          
NEW YORK CITY  CLOUDY    69  64  84 SW8       29.76R                  
$$
 
ANZALL-150900-
MARINE OBSERVATIONS
  
STATION/POSITION TIME  TEMP    WIND        PRES    VSBY  WAVE
                       AIR SEA DIR/SP/G                  HT/PER
                 (UTC) (F)     (DEG/KT/KT) (MB)    (MI)  (FT/S)
BOSTON BUOY      0750   59                 1008.0F         3/10
BUZZARDS BAY     0700          240/ 12/ 13 1009.4F
NANTUCKET SOUND  0740                        N/A
MASS BAY-STELLWA 0704   61     160/  4/  6 1006.9F  1 5/8  4/11
ISLE OF SHOALS   0700   60     210/  3/  3 1008.1F
S OF BLOCK IS    0726      63                N/A           4/ 8
$$

......................KEY.........................
  SKY/WX - SKY CONDITION/PRESENT WEATHER
  TMP    - TEMPERATURE IN FAHRENHEIT
  DWPT   - DEWPOINT IN FAHRENHEIT
  RH     - RELATIVE HUMIDITY IN PERCENT
  WIND   - DIRECTION AND SPEED IN MPH
  PRES   - MEAN SEA LEVEL PRESSURE IN INCHES OF HG
  WCI    - WIND CHILL INDEX
  VSB    - VISIBILITY IN MILES
  HX     - HEAT INDEX
  TC     - TEMPERATURE IN CELSIUS
  VRB    - VARIABLE WIND DIRECTION
  N/A    - NOT AVAILABLE